Appleton, MN

1:50 AM CDT on May 25, 2017 (GMT -0500)
Appleton Municipal

Weather History for KAQP - October, 2010

Change the Weather History Date:

Friday, October 29, 2010

  Actual Average Record
Temperature  
Mean Temperature 38 °F -  
Max Temperature 53 °F 47 °F 71 °F (2004)
Min Temperature 23 °F 30 °F 21 °F (2003)
Degree Days  
Heating Degree Days 27    
Moisture  
Dew Point 30 °F    
Average Humidity 83    
Maximum Humidity 100    
Minimum Humidity 51    
Precipitation  
Precipitation 0.00 in - - ()
Sea Level Pressure  
Sea Level Pressure 30.08 in    
Wind  
Wind Speed 5 mph (SSE)    
Max Wind Speed 14 mph    
Max Gust Speed 16 mph    
Visibility 10 miles    
Events      
Averages and records for this station are not official NWS values.
T = Trace of Precipitation, MM = Missing Value Source: NWS Daily Summary

Daily Weather History Graph

Daily Weather History Graph

Search for Another Location

Airport or City:

Trip Planner

Search our weather history database for the weather conditions in past years. The results will help you decide how hot, cold, wet, or windy it might be!

Date:

Astronomy

Oct. 29, 2010 Rise Set
Actual Time 7:58 AM CDT 6:15 PM CDT
Civil Twilight 7:28 AM CDT 6:46 PM CDT
Nautical Twilight 6:53 AM CDT 7:21 PM CDT
Astronomical Twilight 6:19 AM CDT 7:55 PM CDT
Moon 11:54 PM CDT (10/29) 2:05 PM CDT (10/29)
Length of Visible Light 11h 18m
Length of Day
10h 17m
Waning Gibbous, 59% of the Moon is Illuminated
Oct 29
Waning Gibbous
Oct 30
Last Quarter
Nov 5
New
Nov 13
First Quarter
Nov 21
Full

Hourly Weather History & Observations

Time (CDT) Temp. Windchill Dew Point Humidity Pressure Visibility Wind Dir Wind Speed Gust Speed Precip Events Conditions
12:14 AM 24.8 °F - 24.8 °F 100% 30.32 in 10.0 mi Calm Calm - N/A   Clear
12:34 AM 24.8 °F - 24.8 °F 100% 30.32 in 10.0 mi Calm Calm - N/A   Clear
12:54 AM 23.0 °F - 23.0 °F 100% 30.30 in 10.0 mi Calm Calm - N/A   Clear
1:14 AM 23.0 °F 17.0 °F 23.0 °F 100% 30.30 in 10.0 mi South 4.6 mph - N/A   Clear
1:34 AM 24.8 °F 20.5 °F 24.8 °F 100% 30.29 in 10.0 mi SSE 3.5 mph - N/A   Clear
1:54 AM 24.8 °F 19.1 °F 24.8 °F 100% 30.29 in 10.0 mi South 4.6 mph - N/A   Clear
2:14 AM 26.6 °F 22.6 °F 26.6 °F 100% 30.28 in 10.0 mi South 3.5 mph - N/A   Clear
2:34 AM 24.8 °F 19.1 °F 24.8 °F 100% 30.28 in 10.0 mi South 4.6 mph - N/A   Clear
2:54 AM 24.8 °F 19.1 °F 24.8 °F 100% 30.28 in 10.0 mi South 4.6 mph - N/A   Clear
3:14 AM 24.8 °F 19.1 °F 24.8 °F 100% 30.28 in 10.0 mi South 4.6 mph - N/A   Clear
3:34 AM 24.8 °F 19.1 °F 24.8 °F 100% 30.27 in 10.0 mi South 4.6 mph - N/A   Clear
3:54 AM 24.8 °F 17.9 °F 24.8 °F 100% 30.26 in 10.0 mi South 5.8 mph - N/A   Clear
4:14 AM 24.8 °F 17.9 °F 24.8 °F 100% 30.25 in 10.0 mi South 5.8 mph - N/A   Clear
4:34 AM 24.8 °F 19.1 °F 24.8 °F 100% 30.25 in 10.0 mi SSE 4.6 mph - N/A   Clear
4:54 AM 24.8 °F 17.9 °F 24.8 °F 100% 30.24 in 10.0 mi SSE 5.8 mph - N/A   Clear
5:14 AM 24.8 °F 17.9 °F 24.8 °F 100% 30.23 in 10.0 mi SSE 5.8 mph - N/A   Clear
5:34 AM 24.8 °F 16.9 °F 24.8 °F 100% 30.22 in 10.0 mi SE 6.9 mph - N/A   Clear
5:54 AM 24.8 °F 17.9 °F 24.8 °F 100% 30.21 in 10.0 mi SE 5.8 mph - N/A   Clear
6:14 AM 24.8 °F 16.9 °F 24.8 °F 100% 30.20 in 10.0 mi SE 6.9 mph - N/A   Clear
6:34 AM 26.6 °F 19.1 °F 26.6 °F 100% 30.20 in 10.0 mi SE 6.9 mph - N/A   Clear
6:54 AM 26.6 °F 18.2 °F 24.8 °F 93% 30.19 in 10.0 mi SE 8.1 mph - N/A   Clear
7:13 AM 26.6 °F 20.0 °F 24.8 °F 93% 30.17 in 10.0 mi ESE 5.8 mph - N/A   Clear
7:34 AM 26.6 °F 20.0 °F 26.6 °F 100% 30.16 in 10.0 mi SE 5.8 mph - N/A   Clear
7:54 AM 26.6 °F 19.1 °F 24.8 °F 93% 30.15 in 10.0 mi SE 6.9 mph - N/A   Clear
8:14 AM 26.6 °F 18.2 °F 26.6 °F 100% 30.13 in 10.0 mi SE 8.1 mph - N/A   Clear
8:34 AM 26.6 °F 16.8 °F 26.6 °F 100% 30.12 in 10.0 mi SE 10.4 mph - N/A   Clear
8:54 AM 28.4 °F 18.5 °F 26.6 °F 93% 30.11 in 10.0 mi SE 11.5 mph - N/A   Clear
9:14 AM 30.2 °F 20.8 °F 28.4 °F 93% 30.10 in 10.0 mi SE 11.5 mph - N/A   Clear
9:34 AM 30.2 °F 19.8 °F 28.4 °F 93% 30.07 in 10.0 mi SE 13.8 mph - N/A   Clear
9:54 AM 32.0 °F 23.6 °F 28.4 °F 87% 30.07 in 10.0 mi SE 10.4 mph - N/A   Clear
10:14 AM 33.8 °F 27.7 °F 30.2 °F 87% 30.08 in 10.0 mi SE 6.9 mph - N/A   Clear
10:34 AM 37.4 °F 30.8 °F 30.2 °F 75% 30.07 in 10.0 mi SE 9.2 mph - N/A   Clear
10:54 AM 39.2 °F 33.0 °F 30.2 °F 70% 30.07 in 10.0 mi SSE 9.2 mph - N/A   Clear
11:14 AM 39.2 °F 33.6 °F 30.2 °F 70% 30.06 in 10.0 mi SSE 8.1 mph 16.1 mph N/A   Clear
11:34 AM 39.2 °F 32.5 °F 30.2 °F 70% 30.04 in 10.0 mi SSE 10.4 mph - N/A   Clear
11:54 AM 41.0 °F 34.3 °F 30.2 °F 65% 30.03 in 10.0 mi SSE 11.5 mph - N/A   Clear
12:14 PM 42.8 °F 37.0 °F 30.2 °F 61% 30.02 in 10.0 mi SSE 10.4 mph - N/A   Clear
12:34 PM 44.6 °F 39.7 °F 33.8 °F 66% 30.01 in 10.0 mi South 9.2 mph - N/A   Clear
12:54 PM 44.6 °F 40.2 °F 33.8 °F 66% 30.00 in 10.0 mi South 8.1 mph - N/A   Clear
1:14 PM 46.4 °F 41.9 °F 33.8 °F 62% 29.98 in 10.0 mi SSE 9.2 mph - N/A   Clear
1:34 PM 48.2 °F - 35.6 °F 62% 29.96 in 10.0 mi South 9.2 mph - N/A   Clear
1:54 PM 48.2 °F - 35.6 °F 62% 29.95 in 10.0 mi South 9.2 mph - N/A   Clear
2:14 PM 48.2 °F - 37.4 °F 66% 29.92 in 10.0 mi South 9.2 mph - N/A   Clear
2:34 PM 51.8 °F - 37.4 °F 58% 29.91 in 10.0 mi South 9.2 mph - N/A   Clear
2:54 PM 51.8 °F - 35.6 °F 54% 29.90 in 10.0 mi SSW 5.8 mph - N/A   Clear
3:14 PM 53.6 °F - 35.6 °F 51% 29.89 in 10.0 mi South 6.9 mph - N/A   Clear
3:34 PM 53.6 °F - 37.4 °F 54% 29.87 in 10.0 mi SSE 5.8 mph - N/A   Clear
3:54 PM 53.6 °F - 35.6 °F 51% 29.88 in 10.0 mi South 8.1 mph - N/A   Clear
4:14 PM 51.8 °F - 35.6 °F 54% 29.87 in 10.0 mi South 6.9 mph - N/A   Clear
4:34 PM 51.8 °F - 37.4 °F 58% 29.85 in 10.0 mi South 5.8 mph - N/A   Clear
4:54 PM 51.8 °F - 37.4 °F 58% 29.85 in 10.0 mi Calm Calm - N/A   Clear
5:14 PM 50.0 °F - 39.2 °F 66% 29.84 in 10.0 mi SE 3.5 mph - N/A   Clear
5:34 PM 48.2 °F - 39.2 °F 71% 29.83 in 10.0 mi SE 3.5 mph - N/A   Clear
5:54 PM 48.2 °F - 39.2 °F 71% 29.83 in 10.0 mi ESE 3.5 mph - N/A   Clear
6:14 PM 46.4 °F 45.2 °F 39.2 °F 76% 29.82 in 7.0 mi ESE 3.5 mph - N/A   Clear
6:34 PM 42.8 °F 40.1 °F 39.2 °F 87% 29.83 in 10.0 mi ENE 4.6 mph - N/A   Clear
6:54 PM 41.0 °F 39.0 °F 37.4 °F 87% 29.82 in 10.0 mi East 3.5 mph - N/A   Clear
7:14 PM 39.2 °F 35.9 °F 35.6 °F 87% 29.83 in 10.0 mi NE 4.6 mph - N/A   Clear
7:34 PM 37.4 °F 32.8 °F 37.4 °F 100% 29.83 in 10.0 mi ENE 5.8 mph - N/A   Clear
7:54 PM 37.4 °F 34.9 °F 37.4 °F 100% 29.82 in 10.0 mi East 3.5 mph - N/A   Clear
8:14 PM 37.4 °F 34.9 °F 37.4 °F 100% 29.82 in 10.0 mi East 3.5 mph - N/A   Clear
8:34 PM 37.4 °F 32.8 °F 37.4 °F 100% 29.82 in 10.0 mi ENE 5.8 mph - N/A   Clear
8:54 PM 37.4 °F 33.8 °F 37.4 °F 100% 29.80 in 10.0 mi East 4.6 mph - N/A   Clear
9:14 PM 37.4 °F 33.8 °F 37.4 °F 100% 29.79 in 10.0 mi East 4.6 mph - N/A   Clear
9:33 PM 37.4 °F 34.9 °F 37.4 °F 100% 29.79 in 10.0 mi NE 3.5 mph - N/A   Clear
9:54 PM 37.4 °F 32.8 °F 37.4 °F 100% 29.78 in 10.0 mi ENE 5.8 mph - N/A   Clear
10:14 PM 37.4 °F 33.8 °F 37.4 °F 100% 29.77 in 10.0 mi East 4.6 mph - N/A   Clear
10:34 PM 39.2 °F 37.0 °F 37.4 °F 93% 29.77 in 10.0 mi East 3.5 mph - N/A   Clear
10:54 PM 37.4 °F 34.9 °F 37.4 °F 100% 29.77 in 10.0 mi SE 3.5 mph - N/A   Clear
11:14 PM 37.4 °F - 37.4 °F 100% 29.77 in 10.0 mi Calm Calm - N/A   Clear
11:34 PM 35.6 °F - 35.6 °F 100% 29.77 in 10.0 mi Calm Calm - N/A   Clear
11:54 PM 33.8 °F - 33.8 °F 100% 29.77 in 10.0 mi Calm Calm - N/A   Clear